When you browse on this site, cookies collect data to enhance your experience and personalize the content and advertising you see.
Visit our Privacy Policy to learn more. By continuing to use the site, you agree to this use of cookies and data.

Hourly Weather Wadzhda

Today, 4 July, Saturday

Time Temperature Precipitation Wind Pressure Humidity
00:00 +24°C° 0 mm 0 mps 717 mmHg 35%
01:00 +23°C° 0 mm 0 mps 716 mmHg 36%
02:00 +23°C° 0 mm 0 mps 716 mmHg 37%
03:00 +22°C° 0 mm 0 mps 715 mmHg 38%
04:00 +24°C° 0 mm 1 mps 715 mmHg 38%
05:00 +25°C° 0 mm 1 mps 716 mmHg 38%
06:00 +26°C° 0 mm 1 mps 716 mmHg 37%
07:00 +27°C° 0 mm 1 mps 716 mmHg 32%
08:00 +29°C° 0 mm 1 mps 716 mmHg 27%
09:00 +31°C° 0 mm 2 mps 717 mmHg 23%
10:00 +32°C° 0 mm 2 mps 717 mmHg 21%
11:00 +35°C° 0 mm 3 mps 717 mmHg 20%
12:00 +36°C° 0 mm 4 mps 717 mmHg 18%
13:00 +37°C° 0 mm 4 mps 717 mmHg 21%
14:00 +37°C° 0 mm 5 mps 717 mmHg 23%
15:00 +37°C° 0 mm 5 mps 716 mmHg 25%
16:00 +36°C° 0 mm 5 mps 716 mmHg 29%
17:00 +35°C° 0 mm 5 mps 716 mmHg 33%
18:00 +34°C° 0 mm 4 mps 716 mmHg 37%
19:00 +31°C° 0 mm 3 mps 716 mmHg 43%
20:00 +30°C° 0 mm 2 mps 716 mmHg 48%
21:00 +28°C° 0 mm 1 mps 716 mmHg 53%
22:00 +28°C° 0 mm 1 mps 716 mmHg 55%
23:00 +27°C° 0 mm 1 mps 716 mmHg 57%

Tomorrow, 5 July, Sunday

Time Temperature Precipitation Wind Pressure Humidity
00:00 +27°C° 0 mm 1 mps 716 mmHg 58%
01:00 +26°C° 0 mm 1 mps 716 mmHg 57%
02:00 +26°C° 0 mm 1 mps 716 mmHg 56%
03:00 +26°C° 0 mm 1 mps 715 mmHg 55%
04:00 +26°C° 0 mm 1 mps 715 mmHg 53%
05:00 +27°C° 0 mm 1 mps 715 mmHg 51%
06:00 +27°C° 0 mm 1 mps 715 mmHg 49%
07:00 +29°C° 0 mm 1 mps 716 mmHg 42%
08:00 +31°C° 0 mm 2 mps 716 mmHg 35%
09:00 +34°C° 0 mm 2 mps 717 mmHg 27%
10:00 +36°C° 0 mm 2 mps 717 mmHg 24%
11:00 +37°C° 0 mm 3 mps 717 mmHg 22%
12:00 +39°C° 0 mm 3 mps 717 mmHg 19%
13:00 +40°C° 0 mm 4 mps 716 mmHg 19%
14:00 +40°C° 0 mm 5 mps 716 mmHg 20%
15:00 +40°C° 0 mm 6 mps 715 mmHg 20%
16:00 +39°C° 0 mm 5 mps 715 mmHg 21%
17:00 +39°C° 0 mm 5 mps 715 mmHg 22%
18:00 +37°C° 0 mm 4 mps 714 mmHg 22%
19:00 +35°C° 0 mm 3 mps 715 mmHg 28%
20:00 +32°C° 0 mm 2 mps 715 mmHg 33%
21:00 +30°C° 0 mm 1 mps 715 mmHg 38%
22:00 +29°C° 0 mm 1 mps 715 mmHg 40%
23:00 +28°C° 0 mm 1 mps 715 mmHg 43%

Day after tomorrow, 6 July, Monday

Time Temperature Precipitation Wind Pressure Humidity
00:00 +25°C° 0 mm 0 mps 715 mmHg 45%
01:00 +25°C° 0 mm 0 mps 715 mmHg 45%
02:00 +25°C° 0 mm 0 mps 714 mmHg 45%
03:00 +24°C° 0 mm 0 mps 714 mmHg 45%
04:00 +25°C° 0 mm 0 mps 714 mmHg 45%
05:00 +25°C° 0 mm 0 mps 714 mmHg 44%
06:00 +25°C° 0 mm 0 mps 714 mmHg 43%
07:00 +28°C° 0 mm 0 mps 714 mmHg 37%
08:00 +32°C° 0 mm 1 mps 715 mmHg 31%
09:00 +34°C° 0 mm 1 mps 715 mmHg 25%
10:00 +37°C° 0 mm 2 mps 715 mmHg 23%
11:00 +38°C° 0 mm 2 mps 715 mmHg 20%
12:00 +40°C° 0 mm 3 mps 715 mmHg 18%
13:00 +41°C° 0 mm 4 mps 714 mmHg 18%
14:00 +41°C° 0 mm 5 mps 714 mmHg 18%
15:00 +41°C° 0 mm 6 mps 714 mmHg 18%
16:00 +40°C° 0 mm 5 mps 713 mmHg 20%
17:00 +37°C° 0 mm 4 mps 713 mmHg 22%
18:00 +36°C° 0 mm 4 mps 713 mmHg 24%
19:00 +34°C° 0 mm 3 mps 713 mmHg 28%
20:00 +31°C° 0 mm 2 mps 713 mmHg 32%
21:00 +29°C° 0 mm 1 mps 714 mmHg 37%
22:00 +28°C° 0 mm 1 mps 713 mmHg 39%
23:00 +26°C° 0 mm 0 mps 713 mmHg 40%

7 July, Tuesday

Time Temperature Precipitation Wind Pressure Humidity
00:00 +25°C° 0 mm 0 mps 713 mmHg 42%
01:00 +24°C° 0 mm 0 mps 713 mmHg 44%
02:00 +24°C° 0 mm 0 mps 712 mmHg 45%
03:00 +23°C° 0 mm 0 mps 712 mmHg 46%
04:00 +24°C° 0 mm 0 mps 712 mmHg 44%
05:00 +24°C° 0 mm 0 mps 713 mmHg 42%
06:00 +25°C° 0 mm 0 mps 713 mmHg 39%
07:00 +30°C° 0 mm 1 mps 713 mmHg 32%
08:00 +32°C° 0 mm 1 mps 714 mmHg 25%
09:00 +35°C° 0 mm 1 mps 714 mmHg 18%
10:00 +36°C° 0 mm 1 mps 714 mmHg 16%
11:00 +39°C° 0 mm 1 mps 714 mmHg 14%
12:00 +40°C° 0 mm 2 mps 714 mmHg 11%
13:00 +40°C° 0 mm 3 mps 714 mmHg 13%
14:00 +41°C° 0 mm 5 mps 714 mmHg 14%
15:00 +42°C° 0 mm 6 mps 713 mmHg 15%
16:00 +41°C° 0 mm 5 mps 713 mmHg 15%
17:00 +40°C° 0 mm 4 mps 713 mmHg 16%
18:00 +38°C° 0 mm 4 mps 713 mmHg 16%
19:00 +36°C° 0 mm 3 mps 714 mmHg 20%
20:00 +34°C° 0 mm 2 mps 714 mmHg 23%
21:00 +31°C° 0 mm 1 mps 714 mmHg 26%
22:00 +31°C° 0 mm 1 mps 714 mmHg 26%
23:00 +30°C° 0 mm 1 mps 714 mmHg 26%

8 July, Wednesday

Time Temperature Precipitation Wind Pressure Humidity
00:00 +29°C° 0 mm 1 mps 713 mmHg 26%
01:00 +29°C° 0 mm 1 mps 713 mmHg 27%
02:00 +28°C° 0 mm 1 mps 713 mmHg 28%
03:00 +28°C° 0 mm 1 mps 712 mmHg 30%
04:00 +28°C° 0 mm 1 mps 712 mmHg 29%
05:00 +29°C° 0 mm 2 mps 713 mmHg 28%
06:00 +29°C° 0 mm 2 mps 713 mmHg 28%
07:00 +33°C° 0 mm 3 mps 713 mmHg 23%
08:00 +36°C° 0 mm 3 mps 714 mmHg 19%
09:00 +40°C° 0 mm 4 mps 714 mmHg 15%
10:00 +41°C° 0 mm 5 mps 714 mmHg 13%
11:00 +43°C° 0 mm 5 mps 714 mmHg 11%
12:00 +45°C° 0 mm 5 mps 714 mmHg 10%
13:00 +45°C° 0 mm 5 mps 713 mmHg 12%
14:00 +43°C° 0 mm 5 mps 713 mmHg 15%
15:00 +42°C° 0 mm 4 mps 712 mmHg 18%
16:00 +40°C° 0 mm 4 mps 712 mmHg 23%
17:00 +37°C° 0 mm 4 mps 711 mmHg 29%
18:00 +34°C° 0 mm 4 mps 711 mmHg 35%
19:00 +33°C° 0 mm 3 mps 712 mmHg 39%
20:00 +30°C° 0 mm 2 mps 712 mmHg 43%
21:00 +29°C° 0 mm 1 mps 712 mmHg 47%
22:00 +28°C° 0 mm 1 mps 712 mmHg 49%
23:00 +27°C° 0 mm 1 mps 712 mmHg 51%

9 July, Thursday

Time Temperature Precipitation Wind Pressure Humidity
00:00 +27°C° 0 mm 1 mps 712 mmHg 53%
01:00 +26°C° 0 mm 1 mps 712 mmHg 59%
02:00 +25°C° 0 mm 1 mps 712 mmHg 66%
03:00 +24°C° 0 mm 1 mps 712 mmHg 73%
04:00 +24°C° 0 mm 1 mps 712 mmHg 73%
05:00 +24°C° 0 mm 1 mps 712 mmHg 73%
06:00 +24°C° 0 mm 1 mps 712 mmHg 74%
07:00 +25°C° 0 mm 1 mps 713 mmHg 64%
08:00 +27°C° 0 mm 2 mps 713 mmHg 54%
09:00 +28°C° 0 mm 2 mps 713 mmHg 44%
10:00 +30°C° 0 mm 2 mps 714 mmHg 40%
11:00 +31°C° 0 mm 3 mps 714 mmHg 35%
12:00 +34°C° 0 mm 4 mps 714 mmHg 31%
13:00 +34°C° 0 mm 4 mps 714 mmHg 31%
14:00 +34°C° 0 mm 5 mps 713 mmHg 31%
15:00 +34°C° 0 mm 6 mps 713 mmHg 32%
16:00 +34°C° 0 mm 5 mps 713 mmHg 30%
17:00 +33°C° 0 mm 4 mps 713 mmHg 29%
18:00 +32°C° 0 mm 4 mps 713 mmHg 28%
19:00 +29°C° 0 mm 3 mps 713 mmHg 32%
20:00 +28°C° 0 mm 2 mps 713 mmHg 37%
21:00 +26°C° 0 mm 1 mps 714 mmHg 42%
22:00 +25°C° 0 mm 1 mps 714 mmHg 44%
23:00 +22°C° 0 mm 0 mps 714 mmHg 46%
Show more